Regional Weather Roundup
Issued by NWS Bismarck, ND

Home | Current Version | Previous Version | Text Only | Print | Product List | Glossary On
Versions: 1 2 3 4 5 6 7 8 9 10 11 12 13 14 15 16 17 18 19 20 21 22 23 24 25 26 27 28 29 30 31 32 33 34 35 36 37 38 39 40 41 42 43 44 45 46 47 48 49 50
000
ASUS43 KBIS 272310
RWRBIS

NWR BROADCAST TEXT
NATIONAL WEATHER SERVICE BISMARCK ND
500 PM CST MON FEB 27 2017

NOTE: "FAIR" INDICATES FEW OR NO CLOUDS BELOW 12,000 FEET WITH NO
SIGNIFICANT WEATHER AND/OR OBSTRUCTIONS TO VISIBILITY.


CITY           SKY/WX    TMP DP  RH WIND       PRES   REMARKS
WILLISTON      FAIR      17   8  67 E7        29.81R WCI   8
MINOT          CLOUDY    13   7  77 N7        29.84R HAZE    WCI   3
MINOT AFB      PTSUNNY   11   6  80 N6        29.84R WCI   1
BISMARCK       CLOUDY    21  15  78 NE15      29.81R WCI   8
DICKINSON      CLOUDY    16  11  80 NE14      29.72S WCI   2
GARRISON         N/A     14   8  77 NE8       29.82R WCI   3
HETTINGER ARPT CLOUDY    25  18  74 NE13      29.70R WCI  14
JAMESTOWN      CLOUDY    26  19  74 NE13      29.79R WCI  15
CARRINGTON     CLOUDY    21  18  86 NE12      29.84R WCI   9
HAZEN          HVY SNOW N/A N/A N/A NE9       29.84R
MANDAN         CLOUDY    19  16  86 NE15      29.79S WCI   5
RUGBY          LGT SNOW  14  10  85 E12       29.85S WCI   0
STANLEY        FAIR      10   7  85 E8        29.81S WCI  -1
TIOGA          FAIR      10   9  92 E8        29.80R WCI  -1
WATFORD CITY   FAIR      14   9  79 E10       29.80R WCI   1
$$

CITY           SKY/WX    TMP DP  RH WIND       PRES   REMARKS
GRAND FORKS    PTSUNNY   23  14  68 N16       29.88R WCI  10
GRAND FORKS AF CLOUDY    22  18  83 NE14      29.88R WCI   9
DEVILS LAKE    LGT SNOW  16  12  86 NE10      29.86R FOG     WCI   3
FARGO          FAIR      32  25  75 N9        29.81R
CAVALIER       LGT SNOW  16  10  79 NE12      29.92S WCI   3
GRAFTON        FAIR      16  14  93 N15       29.92S WCI   1
GWINNER        CLOUDY    32  30  93 NE13      29.77R
ROLLA          FAIR      12   5  73 NE9       29.84S WCI   0
$$

CITY           SKY/WX    TMP DP  RH WIND       PRES   REMARKS
ABERDEEN       PTSUNNY   40  19  43 N8        29.71S
MOBRIDGE       FAIR      37  25  61 N12       29.67R
BUFFALO          N/A     35  19  52 NE13      29.56S
RAPID CITY     CLOUDY    38  14  37 N13       29.60R
GLASGOW        FAIR      19  10  68 SE12      29.74S WCI   7
SIDNEY         FLURRIES  18  12  77 NE9       29.80R WCI   7
WOLF POINT     FAIR      18   9  68 E9        29.78S WCI   7
GLENDIVE       FLURRIES  17  13  84 NE13      29.73S WCI   4
MILES CITY     CLOUDY    27  16  63 N5        29.69R
BAKER          PTSUNNY   27  19  72 E16       29.66R WCI  15
$$

CITY           SKY/WX    TMP DP  RH WIND       PRES   REMARKS
BILLINGS       PTSUNNY   28  16  60 NE8       29.60R WCI  20
GREAT FALLS    FAIR      21  13  71 E7        29.54R WCI  12
REGINA         MOSUNNY   12  -2  52 SE7       29.80F WCI   2
ESTEVAN        PTSUNNY    9   1  72 NE7       29.82F WCI  -3
$$




USA.gov is the U.S. government's official web portal to all federal, state and local government web resources and services.